• In Russia
  • List of Countries
  • For 7 days
  • Water Temperature
  • Satellite Maps
  • Weather Map
  • Weather Widgets
  • user-avatar
    Login

    Hourly Weather Dubin

    Today, 23 February, Saturday

    Time Temperature Precipitation Wind Pressure Humidity
    00:00 -3°C° 0 mm 2 mps 774 mmHg 49%
    01:00 -4°C° 0 mm 2 mps 774 mmHg 48%
    02:00 -4°C° 0 mm 2 mps 774 mmHg 48%
    03:00 -4°C° 0 mm 2 mps 774 mmHg 47%
    04:00 -2°C° 0 mm 1 mps 774 mmHg 46%
    05:00 -2°C° 0 mm 1 mps 774 mmHg 46%
    06:00 -2°C° 0 mm 1 mps 774 mmHg 46%
    07:00 -2°C° 0 mm 1 mps 774 mmHg 46%
    08:00 -1°C° 0 mm 1 mps 774 mmHg 41%
    09:00 0°C° 0 mm 1 mps 774 mmHg 37%
    10:00 0°C° 0 mm 1 mps 775 mmHg 33%
    11:00 +1°C° 0 mm 1 mps 774 mmHg 30%
    12:00 +2°C° 0 mm 1 mps 774 mmHg 28%
    13:00 +3°C° 0 mm 1 mps 773 mmHg 25%
    14:00 +3°C° 0 mm 1 mps 773 mmHg 26%
    15:00 +3°C° 0 mm 1 mps 773 mmHg 27%
    16:00 +2°C° 0 mm 0 mps 773 mmHg 29%
    17:00 +2°C° 0 mm 1 mps 773 mmHg 32%
    18:00 +1°C° 0 mm 1 mps 772 mmHg 35%
    19:00 0°C° 0 mm 1 mps 772 mmHg 38%
    20:00 0°C° 0 mm 1 mps 772 mmHg 39%
    21:00 0°C° 0 mm 1 mps 772 mmHg 40%
    22:00 -3°C° 0 mm 2 mps 772 mmHg 41%
    23:00 -3°C° 0 mm 2 mps 772 mmHg 42%

    Tomorrow, 24 February, Sunday

    Time Temperature Precipitation Wind Pressure Humidity
    00:00 -3°C° 0 mm 2 mps 772 mmHg 43%
    01:00 -3°C° 0 mm 2 mps 771 mmHg 44%
    02:00 -3°C° 0 mm 2 mps 771 mmHg 43%
    03:00 0°C° 0 mm 1 mps 771 mmHg 42%
    04:00 0°C° 0 mm 1 mps 770 mmHg 41%
    05:00 0°C° 0 mm 1 mps 770 mmHg 40%
    06:00 +1°C° 0 mm 1 mps 770 mmHg 38%
    07:00 +1°C° 0 mm 1 mps 770 mmHg 37%
    08:00 +2°C° 0 mm 1 mps 770 mmHg 35%
    09:00 +2°C° 0 mm 2 mps 770 mmHg 34%
    10:00 +3°C° 0 mm 2 mps 770 mmHg 32%
    11:00 +4°C° 0 mm 2 mps 770 mmHg 32%
    12:00 +4°C° 0 mm 3 mps 770 mmHg 33%
    13:00 +5°C° 0 mm 3 mps 769 mmHg 33%
    14:00 +5°C° 0 mm 3 mps 769 mmHg 38%
    15:00 +4°C° 0 mm 3 mps 769 mmHg 42%
    16:00 +5°C° 0 mm 2 mps 769 mmHg 47%
    17:00 +3°C° 0 mm 3 mps 769 mmHg 50%
    18:00 +2°C° 0 mm 3 mps 769 mmHg 53%
    19:00 +1°C° 0 mm 3 mps 769 mmHg 56%
    20:00 +1°C° 0 mm 3 mps 769 mmHg 59%
    21:00 +1°C° 0 mm 3 mps 769 mmHg 61%
    22:00 +1°C° 0 mm 3 mps 769 mmHg 64%
    23:00 0°C° 0 mm 3 mps 769 mmHg 67%

    Day after tomorrow, 25 February, Monday

    Time Temperature Precipitation Wind Pressure Humidity
    00:00 0°C° 0 mm 3 mps 769 mmHg 70%
    01:00 0°C° 0 mm 3 mps 769 mmHg 73%
    02:00 0°C° 0 mm 3 mps 769 mmHg 76%
    03:00 -1°C° 0 mm 3 mps 769 mmHg 79%
    04:00 -1°C° 0 mm 3 mps 769 mmHg 82%
    05:00 -1°C° 0 mm 2 mps 769 mmHg 84%
    06:00 -1°C° 0 mm 2 mps 769 mmHg 87%
    07:00 -1°C° 0 mm 2 mps 769 mmHg 89%
    08:00 +1°C° 0 mm 2 mps 769 mmHg 85%
    09:00 +3°C° 0 mm 2 mps 770 mmHg 81%
    10:00 +3°C° 0 mm 3 mps 770 mmHg 77%
    11:00 +5°C° 0 mm 3 mps 770 mmHg 74%
    12:00 +7°C° 0 mm 3 mps 769 mmHg 70%
    13:00 +8°C° 0 mm 3 mps 769 mmHg 67%
    14:00 +8°C° 0 mm 3 mps 769 mmHg 68%
    15:00 +8°C° 0 mm 3 mps 768 mmHg 69%
    16:00 +8°C° 0 mm 3 mps 768 mmHg 70%
    17:00 +7°C° 0 mm 3 mps 768 mmHg 76%
    18:00 +5°C° 0 mm 3 mps 768 mmHg 81%
    19:00 +4°C° 0 mm 3 mps 768 mmHg 87%
    20:00 +4°C° 0 mm 3 mps 767 mmHg 87%
    21:00 +4°C° 0 mm 3 mps 767 mmHg 88%
    22:00 +3°C° 0 mm 3 mps 767 mmHg 88%
    23:00 +3°C° 0 mm 3 mps 767 mmHg 86%

    26 February, Tuesday

    Time Temperature Precipitation Wind Pressure Humidity
    00:00 +3°C° 0 mm 3 mps 766 mmHg 83%
    01:00 +1°C° 0 mm 4 mps 766 mmHg 80%
    02:00 +1°C° 0 mm 4 mps 766 mmHg 81%
    03:00 +1°C° 0 mm 4 mps 766 mmHg 81%
    04:00 0°C° 0 mm 4 mps 765 mmHg 82%
    05:00 0°C° 0 mm 4 mps 765 mmHg 82%
    06:00 0°C° 0 mm 4 mps 765 mmHg 83%
    07:00 0°C° 0 mm 4 mps 764 mmHg 83%
    08:00 +2°C° 0 mm 5 mps 764 mmHg 76%
    09:00 +3°C° 0 mm 5 mps 764 mmHg 68%
    10:00 +4°C° 0 mm 6 mps 764 mmHg 61%
    11:00 +7°C° 0 mm 6 mps 764 mmHg 57%
    12:00 +8°C° 0 mm 6 mps 764 mmHg 53%
    13:00 +9°C° 0 mm 6 mps 763 mmHg 50%
    14:00 +9°C° 0 mm 6 mps 763 mmHg 51%
    15:00 +10°C° 0 mm 5 mps 763 mmHg 53%
    16:00 +10°C° 0 mm 5 mps 763 mmHg 55%
    17:00 +8°C° 0 mm 4 mps 763 mmHg 61%
    18:00 +7°C° 0 mm 4 mps 764 mmHg 67%
    19:00 +7°C° 0 mm 3 mps 764 mmHg 73%
    20:00 +5°C° 0 mm 3 mps 764 mmHg 77%
    21:00 +5°C° 0 mm 3 mps 764 mmHg 81%
    22:00 +4°C° 0 mm 3 mps 764 mmHg 85%
    23:00 +5°C° 0 mm 2 mps 764 mmHg 87%

    27 February, Wednesday

    Time Temperature Precipitation Wind Pressure Humidity
    00:00 +4°C° 0 mm 2 mps 764 mmHg 89%
    01:00 +4°C° 0 mm 2 mps 764 mmHg 91%
    02:00 +4°C° 0 mm 2 mps 764 mmHg 91%
    03:00 +3°C° 0 mm 2 mps 764 mmHg 92%
    04:00 +3°C° 0 mm 2 mps 764 mmHg 93%
    05:00 +4°C° 0 mm 1 mps 763 mmHg 93%
    06:00 +3°C° 0 mm 1 mps 763 mmHg 93%
    07:00 +3°C° 0 mm 1 mps 763 mmHg 93%
    08:00 +5°C° 0 mm 1 mps 763 mmHg 87%
    09:00 +5°C° 0 mm 2 mps 763 mmHg 81%
    10:00 +7°C° 0 mm 2 mps 763 mmHg 75%
    11:00 +8°C° 0 mm 2 mps 762 mmHg 70%
    12:00 +10°C° 0 mm 3 mps 762 mmHg 65%
    13:00 +11°C° 0 mm 3 mps 761 mmHg 60%
    14:00 +11°C° 0 mm 3 mps 761 mmHg 60%
    15:00 +11°C° 0 mm 3 mps 760 mmHg 61%
    16:00 +12°C° 0 mm 3 mps 759 mmHg 61%
    17:00 +10°C° 0 mm 3 mps 759 mmHg 66%
    18:00 +9°C° 0 mm 3 mps 759 mmHg 71%
    19:00 +8°C° 0 mm 3 mps 758 mmHg 75%
    20:00 +8°C° 0 mm 3 mps 758 mmHg 77%
    21:00 +7°C° 0 mm 3 mps 757 mmHg 78%
    22:00 +7°C° 0 mm 3 mps 757 mmHg 80%
    23:00 +6°C° 0 mm 4 mps 756 mmHg 79%

    28 February, Thursday

    Time Temperature Precipitation Wind Pressure Humidity
    00:00 +6°C° 0 mm 4 mps 755 mmHg 78%
    01:00 +6°C° 0 mm 5 mps 755 mmHg 77%
    02:00 +6°C° 0 mm 5 mps 754 mmHg 77%
    03:00 +6°C° 0 mm 5 mps 754 mmHg 78%
    04:00 +5°C° 0 mm 6 mps 753 mmHg 78%
    05:00 +4°C° 0 mm 6 mps 753 mmHg 81%
    06:00 +4°C° 0 mm 6 mps 753 mmHg 83%
    07:00 +4°C° 0 mm 6 mps 752 mmHg 85%
    08:00 +4°C° 0 mm 6 mps 752 mmHg 84%
    09:00 +5°C° 0 mm 7 mps 752 mmHg 82%
    10:00 +5°C° 0 mm 7 mps 752 mmHg 80%
    11:00 +6°C° 0 mm 7 mps 752 mmHg 77%
    12:00 +6°C° 0 mm 7 mps 752 mmHg 74%
    13:00 +8°C° 0 mm 6 mps 752 mmHg 71%
    14:00 +8°C° 0 mm 6 mps 752 mmHg 69%
    15:00 +9°C° 0 mm 6 mps 751 mmHg 66%
    16:00 +9°C° 0 mm 6 mps 751 mmHg 64%
    17:00 +8°C° 0 mm 5 mps 751 mmHg 68%
    18:00 +7°C° 0 mm 5 mps 751 mmHg 72%
    19:00 +6°C° 0 mm 4 mps 751 mmHg 76%
    20:00 +6°C° 0 mm 4 mps 751 mmHg 79%
    21:00 +5°C° 0 mm 4 mps 751 mmHg 81%
    22:00 +5°C° 0 mm 4 mps 751 mmHg 83%
    23:00 +4°C° 0 mm 4 mps 751 mmHg 84%
    Show more